{"data":{"norad_id":68170,"intl_designator":"2026-050D","name":"STARLINK-37003","alt_names":[],"object_type":"PAYLOAD","status":"ACTIVE","operator":null,"country":"US","launch_date":"2026-03-14","launch_site_code":"AFETR","launch_vehicle":null,"mission":null,"orbit_class":"UNKNOWN","rcs_meters":null,"size_class":null,"mass_kg":null,"dimensions":null,"purposes":["comms"],"wikipedia_slug":null,"has_3d_model":false,"image_url":null,"decayed_at":null,"tle_current":{"epoch":"2026-09-20T01:19:52.691808Z","epoch_age_seconds":94184,"freshness":"FRESH","line1":"1 68170U 26050D   26263.05547097  .00016674  00000+0  50354-3 0  9994","line2":"2 68170  53.1563  79.5289 0001135  84.6210 275.4922 15.34399433 30501","mean_motion":15.34399433,"eccentricity":0.0001135,"inclination_deg":53.1563,"raan_deg":79.5289,"arg_perigee_deg":84.621,"mean_anomaly_deg":275.4922,"bstar":0.00050354,"rev_number":3050,"period_min":93.847792760492,"perigee_km":461.92848989258,"apogee_km":463.48136100965,"semimajor_km":6840.8419254511,"source":"CELESTRAK","updated_at":"2026-09-20T09:00:43.798944Z"}}}